Skip Page Navigation
NASA JPL Caltech
NASA Logo - Jet Propulsion Laboratory + View the NASA Portal
+ Center for Near-Earth Object Studies
JPL Home Earth Solar System Stars & Galaxies Technology
JPL Solar System Dynamics
BODIES ORBITS EPHEMERIDES TOOLS PHYSICAL DATA DISCOVERY FAQ SITE MAP
IMPORTANT: The SSD Announcement email list is now available. Major changes are coming in the near future, including possible hostname and/or URL changes. To be notified of such changes, subscribe to this email list.

Please visit this page for more details.


JPL Small-Body Database Browser
Search: [ help ]  
347687 (2001 VZ6)
Classification: Main-belt Asteroid          SPK-ID: 2347687
Ephemeris | Orbit Diagram | Orbital Elements | Mission Design | Physical Parameters | Discovery Circumstances ]

[ show orbit diagram ]
Orbital Elements at Epoch 2459000.5 (2020-May-31.0) TDB
Reference: JPL 14 (heliocentric ecliptic J2000)
 Element Value Uncertainty (1-sigma)   Units 
e .1777725686633877 5.1154e-08  
a 2.335026661229559 1.3935e-08 au
q 1.919922973765286 1.179e-07 au
i 2.930297369711485 7.7958e-06 deg
node 42.62931941096977 0.00012427 deg
peri 61.65285909295268 0.00012685 deg
M 29.85606954908889 2.6155e-05 deg
tp 2458892.414776389319
(2020-Feb-12.91477639)
9.4247e-05 TDB
period 1303.275383783145
3.57
1.1667e-05
3.194e-08
d
yr
n .2762271155271827 2.4728e-09 deg/d
Q 2.750130348693832 1.6413e-08 au
  Orbit Determination Parameters
   # obs. used (total)      218  
   data-arc span      6652 days (18.21 yr)  
   first obs. used      2001-10-18  
   last obs. used      2020-01-04  
   planetary ephem.      DE431  
   SB-pert. ephem.      SB431-N16  
   condition code      0  
   norm. resid. RMS      .64651  
   source      ORB  
   producer      Otto Matic  
   solution date      2020-Jan-30 08:21:45  

Additional Information
 Earth MOID = .938829 au 
 Jupiter MOID = 2.39023 au 
 T_jup = 3.545 
[ show covariance matrix ]

Ephemeris | Orbit Diagram | Orbital Elements | Mission Design | Physical Parameters | Discovery Circumstances ]

Physical Parameter Table
Parameter Symbol Value Units Sigma Reference Notes
absolute magnitude H 17.4   n/a MPO455523  

347687 (2001 VZ6)          Discovered 2001-Nov-09 by LINEAR at Socorro
Reference: 20121228/Numbers.arcLast Updated: 2013-01-02
Ephemeris | Orbit Diagram | Orbital Elements | Mission Design | Physical Parameters | Discovery Circumstances ]
ABOUT SSD CREDITS/AWARDS PRIVACY/COPYRIGHT GLOSSARY LINKS
FirstGov 2020-Feb-25 22:51 UT
(server date/time)  
NASA Home Page
Site Manager:   Ryan S. Park
Webmaster  Alan B. Chamberlin